Hastings, NE

12:53 PM CDT on September 25, 2016 (GMT -0500)
Hastings Municipal

Weather History for KHSI - February, 2012

Change the Weather History Date:

Sunday, February 26, 2012

  Actual Average Record
Temperature  
Mean Temperature 40 °F 33 °F  
Max Temperature 52 °F 43 °F 74 °F (1986)
Min Temperature 27 °F 23 °F -8 °F (1934)
Degree Days  
Heating Degree Days 25 32  
Month to date heating degree days 916 919  
Since 1 July heating degree days 4278 4568  
Cooling Degree Days 0 0  
Month to date cooling degree days 0 0  
Year to date cooling degree days 0 0  
Moisture  
Dew Point 19 °F    
Average Humidity 48    
Maximum Humidity 69    
Minimum Humidity 27    
Precipitation  
Precipitation 0.00 in 0.02 in 0.45 in (1906)
Month to date precipitation 1.63 0.45  
Year to date precipitation 1.77 0.86  
Snow  
Snow 0.00 in 0.20 in 4.00 in (1912)
Month to date snowfall 11.4 6.1  
Since 1 July snowfall 22.5 22.0  
Snow Depth 0.00 in    
Sea Level Pressure  
Sea Level Pressure 29.97 in    
Wind  
Wind Speed 12 mph (WNW)    
Max Wind Speed 24 mph    
Max Gust Speed 33 mph    
Visibility 10 miles    
Events      
T = Trace of Precipitation, MM = Missing Value Source: NWS Daily Summary

Daily Weather History Graph

Daily Weather History Graph

Search for Another Location

Airport or City:

Trip Planner

Search our weather history database for the weather conditions in past years. The results will help you decide how hot, cold, wet, or windy it might be!

Date:

Astronomy

Feb. 26, 2012 Rise Set
Actual Time 7:12 AM CST 6:21 PM CST
Civil Twilight 6:45 AM CST 6:48 PM CST
Nautical Twilight 6:13 AM CST 7:20 PM CST
Astronomical Twilight 5:41 AM CST 7:52 PM CST
Moon 9:06 AM CST (2/26) 11:22 PM CST (2/26)
Length of Visible Light 12h 03m
Length of Day
11h 08m
Waxing Crescent, 21% of the Moon is Illuminated
Feb 26
Waxing Crescent
Feb 29
First Quarter
Mar 8
Full
Mar 14
Last Quarter
Mar 22
New

Hourly Weather History & Observations

Time (CST) Temp. Windchill Dew Point Humidity Pressure Visibility Wind Dir Wind Speed Gust Speed Precip Events Conditions
12:53 AM 41.0 °F 35.8 °F 21.9 °F 47% 29.66 in 10.0 mi West 8.1 mph - N/A   Clear
1:53 AM 37.0 °F 31.6 °F 24.1 °F 59% 29.70 in 10.0 mi West 6.9 mph - N/A   Clear
2:53 AM 34.0 °F 27.2 °F 23.0 °F 64% 29.72 in 10.0 mi WSW 8.1 mph - N/A   Clear
3:53 AM 30.9 °F 24.3 °F 21.9 °F 69% 29.74 in 10.0 mi SW 6.9 mph - N/A   Clear
4:53 AM 30.9 °F 23.5 °F 19.9 °F 64% 29.78 in 10.0 mi SW 8.1 mph - N/A   Clear
5:53 AM 30.9 °F 24.3 °F 18.0 °F 59% 29.81 in 10.0 mi WSW 6.9 mph - N/A   Clear
7:53 AM 33.1 °F 25.5 °F 17.1 °F 52% 29.88 in 10.0 mi WSW 9.2 mph - N/A   Clear
8:53 AM 37.9 °F 30.0 °F 17.1 °F 43% 29.91 in 10.0 mi West 12.7 mph - N/A   Clear
9:53 AM 42.1 °F 33.3 °F 15.1 °F 34% 29.93 in 10.0 mi West 19.6 mph 24.2 mph N/A   Clear
10:53 AM 45.0 °F 37.4 °F 16.0 °F 31% 29.94 in 10.0 mi WNW 18.4 mph 26.5 mph N/A   Clear
11:53 AM 46.9 °F - 17.1 °F 30% 29.95 in 10.0 mi West 17.3 mph - N/A   Clear
12:53 PM 48.0 °F - 17.1 °F 29% 29.95 in 10.0 mi WNW 20.7 mph 27.6 mph N/A   Clear
1:53 PM 50.0 °F - 17.1 °F 27% 29.95 in 10.0 mi WNW 19.6 mph 28.8 mph N/A   Clear
2:53 PM 51.1 °F - 19.0 °F 28% 29.97 in 10.0 mi WNW 21.9 mph 33.4 mph N/A   Clear
3:53 PM 51.1 °F - 19.9 °F 29% 29.99 in 10.0 mi NW 23.0 mph 27.6 mph N/A   Clear
4:53 PM 50.0 °F - 19.9 °F 31% 30.03 in 10.0 mi NNW 15.0 mph - N/A   Clear
5:53 PM 46.0 °F 40.6 °F 21.9 °F 39% 30.07 in 10.0 mi NW 11.5 mph - N/A   Clear
6:53 PM 35.1 °F 29.3 °F 21.9 °F 59% 30.13 in 10.0 mi WNW 6.9 mph - N/A   Clear
7:53 PM 30.9 °F 25.2 °F 21.0 °F 67% 30.18 in 10.0 mi West 5.8 mph - N/A   Clear
8:53 PM 32.0 °F 24.8 °F 21.0 °F 64% 30.20 in 10.0 mi WNW 8.1 mph - N/A   Clear
9:53 PM 30.9 °F 23.5 °F 19.9 °F 64% 30.25 in 10.0 mi North 8.1 mph - N/A   Clear
10:53 PM 30.0 °F 19.5 °F 19.0 °F 64% 30.29 in 10.0 mi North 13.8 mph - N/A   Clear
11:53 PM 27.0 °F 16.7 °F 17.1 °F 66% 30.33 in 10.0 mi North 11.5 mph - N/A   Clear